Regional Weather Roundup
Issued by NWS

Home | Current Version | Previous Version | Graphics & Text | Print | Product List | Glossary Off
Versions: 1 2 3 4 5 6 7 8 9 10 11 12 13 14 15 16 17 18 19 20 21 22 23 24 25 26 27 28 29 30 31 32 33 34 35 36 37 38 39 40 41 42 43 44 45 46 47 48 49 50

000
ASUS45 KSLC 270910
RWRUT

UTAH REGIONAL WEATHER ROUNDUP
NATIONAL WEATHER SERVICE SALT LAKE CITY UT
300 AM MDT MON APR 27 2015

UTZ001>011-023>025-271000-

NORTHERN UTAH

CITY           SKY/WX    TMP DP  RH WIND       PRES   REMARKS
BRIGHAM CITY   CLEAR     43  29  58 N8        30.18S
HILL AFB       CLEAR     41  34  78 SE5       30.17R
LOGAN          CLEAR     38  34  85 CALM      30.18S
OGDEN          CLEAR     41  34  76 NW6       30.16S
PROVO AIRPORT  CLEAR     41  34  75 CALM      30.13S
SALT LAKE CITY MOCLDY    45  38  76 NW9       30.15S
VERNAL         MOCLDY    45  33  63 W5        30.06R
WENDOVER       CLEAR     46  12  25 NW10      30.19F
HEBER CITY     MOCLDY    43  30  61 NE8       30.14S
WEST JORDAN    CLOUDY    45  36  70 NW14      30.17R

$$

UTZ012>022-026-027-271000-

SOUTHERN/CENTRAL UTAH

CITY           SKY/WX    TMP DP  RH WIND       PRES   REMARKS
BLANDING       PTCLDY    42  37  83 NW7       30.01S
BRYCE CANYON   CLEAR     30  25  81 N10       30.11F WCI  21
CEDAR CITY     CLEAR     33  26  75 NE5       30.12S WCI  29
DELTA          CLOUDY    40  31  71 CALM      30.16R
HANKSVILLE     MOCLDY    46  30  53 NW8       30.03S
MILFORD        CLEAR     34  29  82 N8        30.14S WCI  27
MOAB/CYNLANDS  CLOUDY    48  38  68 NW12      29.97S
PRICE          NOT AVBL
ST GEORGE      MOSUNNY   52  28  40 NE8       30.03S
KANAB          CLEAR     45  28  53 N12G18    30.07S

$$

REGIONAL REPORTS     COLORADO/ARIZONA

CITY           SKY/WX    TMP DP  RH WIND       PRES   REMARKS
CRAIG, CO      CLOUDY    41  38  89 W3        30.06R
GRAND JUNCTION CLOUDY    45  40  82 CALM      29.98R
RIFLE          PTCLDY    42  37  82 CALM      30.02R
MONTROSE       CLOUDY    44  41  89 CALM      30.01R
CORTEZ         MOCLDY    37  35  92 NE5       29.95R WCI  33
PAGE, AZ       CLEAR     50  27  40 W7        29.99R
GRAND CANYON   CLEAR     33  26  75 NE12      30.03S WCI  24
KINGMAN        CLEAR     41  27  57 CALM      29.98F
FLAGSTAFF      CLEAR     31  27  85 CALM      30.01S

$$

REGIONAL REPORTS    NEVADA/IDAHO/WYOMING

CITY           SKY/WX    TMP DP  RH WIND       PRES   REMARKS
LAS VEGAS, NV  PTCLDY    62  17  17 NW18G26   29.99S
ELY            CLEAR     32  20  61 N10       30.22S WCI  24
ELKO           CLEAR     33  24  69 E3        30.25S
POCATELLO, ID  CLOUDY    41  31  67 SW7       30.23S
BURLEY         CLEAR     38  20  48 W6        30.21S WCI  33
EVANSTON, WY   CLOUDY    34  30  85 W5        30.17S WCI  30
ROCK SPRINGS   FLURRIES  35  33  92 N7        30.15R WCI  29
KEMMERER       DRIZZLE   34  34 100 NW3       30.17S

$$



USA.gov is the U.S. government's official web portal to all federal, state and local government web resources and services.